Location: Charleville
(26.4021°S, 146.2454°E)
Time: 03:49:46
(UTC+10:00)

Envisat - Pass Details

Date: 15 November 2025
Orbit: 761 x 762 km, 98.4° (Epoch: 05 December)

Event Time Altitude Azimuth Distance (km) Brightness Sun altitude
Exits shadow 01:14:57 14° 131° (SE) 2,045 5.7 -41.6°
Drops below altitude 10° 01:16:25 10° 147° (SSE) 2,315 6.1 -41.5°
Sets 01:19:36 0° 168° (SSE) 3,250 7.1 -41.2°
